Location: Newark
(25.6108°S, 54.5803°W)
Time: 17:15:11
(UTC+00:00)

Courier 1B Rocket - Pass Details

Date: 05 November 2020
Orbit: 920 x 1202 km, 28.2° (Epoch: 22 November)

Event Time Altitude Azimuth Distance (km) Brightness Sun altitude
Rises 10:50:01 0° 257° (WSW) 3,995 7.7 26.3°
Reaches altitude 10° 10:52:53 10° 258° (WSW) 2,996 7.1 27.0°
Maximum altitude 11:00:16 84° 344° (NNW) 1,072 5.7 28.6°
Drops below altitude 10° 11:07:05 10° 72° (ENE) 2,775 8.6 30.2°
Sets 11:09:40 0° 72° (ENE) 3,685 9.0 30.7°
